GW5162 Weather Reports


time (UTC)temp
C
wind
direction
speed
KPH
gust
KPH
rain 1hr
cm
rain 24hr
cm
rain mn
cm
humidity
%
barometer
mb
20260505023021 11 282 0.0 0.0 0.00 0.20 0.20 72 1010.3
20260505022518 11 288 1.6 3.2 0.00 0.20 0.20 70 1010.2
20260505022015 11 288 1.6 1.6 0.00 0.20 0.20 69 1009.8
20260505021512 11 316 0.0 0.0 0.00 0.20 0.20 69 1010.0
20260505021009 11 311 0.0 1.6 0.00 0.20 0.20 69 1010.1
20260505020503 11 320 0.0 1.6 0.00 0.20 0.20 70 1010.0
20260505020000 11 304 0.0 0.0 0.00 0.20 0.20 70 1010.1
20260505015457 11 334 3.2 3.2 0.00 0.20 0.20 70 1010.3
20260505014954 11 340 1.6 3.2 0.00 0.20 0.20 71 1010.1
20260505014451 11 322 0.0 0.0 0.00 0.20 0.20 71 1010.0
20260505013948 11 347 0.0 1.6 0.00 0.20 0.20 71 1010.2
20260505013445 11 344 0.0 1.6 0.00 0.20 0.20 70 1010.0
20260505012943 11 298 3.2 4.8 0.00 0.20 0.20 69 1009.7
20260505012441 11 3 4.8 4.8 0.00 0.20 0.20 67 1009.8
20260505011937 11 0 4.8 4.8 0.00 0.20 0.20 66 1009.8
20260505011433 11 8 4.8 8.0 0.00 0.20 0.20 66 1010.0
20260505010930 12 318 6.4 9.7 0.00 0.20 0.20 65 1009.8
20260505010426 12 328 4.8 8.0 0.00 0.20 0.20 64 1010.0
20260505005922 12 322 3.2 3.2 0.00 0.20 0.20 64 1009.7
20260505005419 12 6 4.8 9.7 0.00 0.20 0.20 63 1010.1
20260505004917 12 322 8.0 11.3 0.00 0.20 0.20 62 1009.8
20260505004413 13 340 4.8 4.8 0.00 0.20 0.20 61 1009.7
20260505003910 13 333 3.2 3.2 0.00 0.20 0.20 62 1009.8
20260505003407 13 356 1.6 1.6 0.00 0.20 0.20 65 1009.7
20260505002903 13 340 0.0 0.0 0.00 0.20 0.20 63 1009.5
20260505002400 13 15 1.6 1.6 0.00 0.20 0.20 64 1009.6
20260505001858 13 328 0.0 0.0 0.00 0.20 0.20 68 1009.4
20260505001355 13 273 1.6 1.6 0.00 0.20 0.20 67 1009.5
20260505000853 13 277 1.6 1.6 0.00 0.20 0.20 67 1009.4
20260505000351 13 348 0.0 1.6 0.00 0.20 0.20 70 1009.5
20260504235847 12 335 0.0 0.0 0.00 0.20 0.20 72 1009.4
20260504235344 13 344 0.0 0.0 0.00 0.20 0.20 75 1009.4
20260504234840 13 301 0.0 0.0 0.00 0.20 0.20 74 1009.4
20260504234338 13 248 0.0 0.0 0.00 0.20 0.20 73 1009.4
20260504233834 13 225 0.0 1.6 0.00 0.20 0.20 71 1009.0
20260504233330 12 197 1.6 3.2 0.00 0.20 0.20 71 1009.1
20260504232827 12 180 1.6 3.2 0.00 0.20 0.20 80 1008.9
20260504232324 12 161 0.0 1.6 0.00 0.20 0.20 81 1009.0
20260504231821 12 318 0.0 0.0 0.00 0.20 0.20 81 1009.0
20260504231317 11 28 1.6 1.6 0.18 0.20 0.20 78 1009.4
20260504230813 11 164 1.6 1.6 0.30 0.20 0.20 76 1009.3
20260504230312 11 85 0.0 0.0 0.43 0.18 0.18 73 1009.4
20260504225810 12 19 6.4 9.7 0.30 0.15 0.15 69 1009.4
20260504225306 13 331 4.8 8.0 0.18 0.10 0.10 64 1009.3
20260504224803 15 328 3.2 3.2 0.18 0.10 0.10 55 1009.0
20260504224301 16 293 1.6 1.6 0.00 0.08 0.08 48 1008.8
20260504223757 16 308 3.2 3.2 0.00 0.08 0.08 42 1008.7
20260504223252 16 358 8.0 9.7 0.00 0.08 0.08 41 1008.6
20260504222749 16 61 3.2 3.2 0.00 0.08 0.08 41 1008.3
20260504222246 16 30 1.6 3.2 0.00 0.08 0.08 41 1008.2
20260504221744 16 11 4.8 4.8 0.00 0.08 0.08 41 1008.2
20260504221241 16 27 8.0 11.3 0.00 0.08 0.08 39 1008.1
20260504220738 16 347 4.8 8.0 0.00 0.08 0.08 39 1007.6
20260504220235 16 330 3.2 8.0 0.00 0.08 0.08 43 1007.5
20260504215732 16 350 6.4 8.0 0.00 0.08 0.08 43 1007.2
20260504215228 16 14 1.6 1.6 0.00 0.08 0.08 45 1007.4
20260504214724 16 8 3.2 3.2 0.00 0.08 0.08 45 1007.5
20260504214221 16 16 4.8 8.0 0.00 0.08 0.08 44 1007.6
20260504213718 16 48 9.7 14.5 0.00 0.08 0.08 47 1008.0
20260504213214 17 57 3.2 8.0 0.00 0.08 0.08 47 1008.1
20260504212711 16 132 8.0 11.3 0.00 0.08 0.08 44 1008.8
20260504212208 15 28 1.6 1.6 0.00 0.08 0.08 50 1008.9
20260504211705 15 91 4.8 4.8 0.00 0.08 0.08 49 1008.9
20260504211201 14 18 1.6 1.6 0.00 0.08 0.08 49 1009.4
20260504210659 15 15 8.0 11.3 0.00 0.08 0.08 49 1009.4
20260504210155 14 35 8.0 12.9 0.00 0.08 0.08 52 1009.4
20260504205653 13 32 3.2 3.2 0.13 0.08 0.08 57 1009.1
20260504205150 14 43 6.4 11.3 0.48 0.08 0.08 54 1009.0
20260504204649 15 13 3.2 3.2 0.36 0.05 0.05 51 1008.9
20260504204147 16 13 6.4 11.3 0.00 0.00 0.00 39 1008.8
20260504203645 16 318 3.2 8.0 0.00 0.00 0.00 40 1008.6
20260504203143 16 341 9.7 16.1 0.00 0.00 0.00 43 1008.2
20260504202642 17 6 6.4 9.7 0.00 0.00 0.00 37 1007.6
20260504202140 17 341 20.9 29.0 0.00 0.00 0.00 33 1007.4
20260504201636 18 49 12.9 20.9 0.00 0.00 0.00 32 1007.2
20260504201134 20 7 19.3 29.0 0.00 0.00 0.00 29 1007.3
20260504200631 21 31 4.8 4.8 0.00 0.00 0.00 24 1007.2
20260504200128 21 74 4.8 9.7 0.00 0.00 0.00 24 1006.9
20260504195624 22 24 3.2 3.2 0.00 0.00 0.00 23 1007.0
20260504195120 22 12 1.6 1.6 0.00 0.00 0.00 24 1007.2
20260504194617 22 340 3.2 3.2 0.00 0.00 0.00 24 1006.8
20260504194113 22 7 4.8 8.0 0.00 0.00 0.00 25 1007.0
20260504193609 23 348 1.6 3.2 0.00 0.00 0.00 23 1007.2
20260504193108 23 15 6.4 8.0 0.00 0.00 0.00 23 1007.2
20260504192606 23 316 3.2 4.8 0.00 0.00 0.00 24 1007.3
20260504192104 23 313 4.8 8.0 0.00 0.00 0.00 24 1007.2
20260504191602 23 310 6.4 11.3 0.00 0.00 0.00 23 1007.2
20260504191057 23 236 6.4 9.7 0.00 0.00 0.00 24 1006.9
20260504190554 22 253 4.8 4.8 0.00 0.00 0.00 24 1007.3
20260504190050 22 186 8.0 11.3 0.00 0.00 0.00 24 1007.2
20260504185547 22 0 11.3 17.7 0.00 0.00 0.00 24 1007.4
20260504185043 22 333 11.3 14.5 0.00 0.00 0.00 23 1007.2
20260504184539 22 324 11.3 14.5 0.00 0.00 0.00 23 1007.4
20260504184034 23 258 6.4 9.7 0.00 0.00 0.00 23 1007.3
20260504183532 22 333 12.9 16.1 0.00 0.00 0.00 24 1007.6
20260504183030 22 334 11.3 16.1 0.00 0.00 0.00 23 1007.7
20260504182526 22 293 6.4 11.3 0.00 0.00 0.00 24 1007.5
20260504182024 22 325 4.8 4.8 0.00 0.00 0.00 24 1007.6
20260504181521 22 261 4.8 8.0 0.00 0.00 0.00 25 1007.6
20260504181019 22 306 4.8 4.8 0.00 0.00 0.00 25 1008.1
20260504180518 21 278 6.4 8.0 0.00 0.00 0.00 26 1008.2
20260504180016 21 277 6.4 8.0 0.00 0.00 0.00 26 1008.2
20260504175513 21 209 3.2 4.8 0.00 0.00 0.00 26 1008.2
20260504175010 20 282 9.7 14.5 0.00 0.00 0.00 26 1008.3
20260504174508 21 215 4.8 8.0 0.00 0.00 0.00 27 1008.3
20260504174005 21 217 1.6 1.6 0.00 0.00 0.00 27 1008.6
20260504173501 20 174 3.2 3.2 0.00 0.00 0.00 28 1008.6
20260504172959 20 254 3.2 3.2 0.00 0.00 0.00 29 1008.8
20260504172454 20 147 3.2 8.0 0.00 0.00 0.00 29 1008.3
20260504171951 19 219 1.6 1.6 0.00 0.00 0.00 29 1008.7
20260504171448 18 257 3.2 3.2 0.00 0.00 0.00 30 1008.8
20260504170945 18 224 1.6 3.2 0.00 0.00 0.00 31 1008.6
20260504170441 18 200 8.0 9.7 0.00 0.00 0.00 30 1008.8
20260504160401 18 236 1.6 3.2 0.00 0.00 0.00 30 1008.8
20260504150825 17 291 3.2 3.2 0.00 0.00 0.00 29 1008.7
20260504150322 17 129 3.2 3.2 0.00 0.00 0.00 29 1008.9
20260504141252 11 75 0.0 0.0 0.00 0.00 0.00 48 1008.9
20260504140748 11 46 0.0 0.0 0.00 0.00 0.00 50 1009.0
20260504140244 10 21 0.0 0.0 0.00 0.00 0.00 51 1009.0
20260504130713 7 16 0.0 0.0 0.00 0.00 0.00 50 1009.3
20260504130209 6 186 0.0 0.0 0.00 0.00 0.00 50 1008.9
20260504120133 4 355 0.0 0.0 0.00 0.00 0.00 58 1008.9
20260504110600 4 323 0.0 0.0 0.00 0.00 0.00 56 1009.4
20260504100522 4 135 0.0 0.0 0.00 0.00 0.00 60 1009.6
20260504081915 6 242 0.0 0.0 0.00 0.00 0.00 52 1010.1
20260504081412 7 245 0.0 0.0 0.00 0.00 0.00 51 1010.3
20260504080908 7 287 0.0 0.0 0.00 0.00 0.00 53 1010.3
20260504080405 7 285 0.0 0.0 0.00 0.00 0.00 53 1010.4
20260504070332 10 194 0.0 0.0 0.00 0.00 0.00 41 1010.8
20260504050721 15 332 6.4 8.0 0.00 0.00 0.00 34 1010.7
20260504050218 15 352 6.4 9.7 0.00 0.00 0.00 33 1010.9
20260504045715 15 11 8.0 9.7 0.00 0.00 0.00 33 1010.9
20260504045215 15 14 9.7 14.5 0.00 0.00 0.00 32 1010.8
20260504044713 16 48 0.0 0.0 0.00 0.00 0.00 30 1010.8
20260504044210 16 39 1.6 3.2 0.00 0.00 0.00 29 1010.8
20260504043707 16 296 3.2 4.8 0.00 0.00 0.00 28 1010.9
20260504043204 16 11 4.8 8.0 0.00 0.00 0.00 26 1010.8
20260504042701 16 30 3.2 3.2 0.00 0.00 0.00 29 1010.4
20260504042158 15 17 4.8 4.8 0.00 0.00 0.00 29 1010.7
20260504041654 15 320 3.2 3.2 0.00 0.00 0.00 29 1010.5
20260504041149 15 300 1.6 1.6 0.00 0.00 0.00 30 1010.4
20260504040647 15 299 0.0 1.6 0.00 0.00 0.00 30 1010.7
20260504040144 16 310 0.0 1.6 0.00 0.00 0.00 29 1010.3
20260504035640 16 313 3.2 3.2 0.00 0.00 0.00 29 1010.5
20260504035137 15 309 1.6 3.2 0.00 0.00 0.00 29 1010.7
20260504034635 16 306 1.6 1.6 0.00 0.00 0.00 29 1010.5
20260504034132 16 311 0.0 1.6 0.00 0.00 0.00 29 1010.7
20260504033630 16 290 0.0 1.6 0.00 0.00 0.00 29 1010.5
20260504033127 16 304 1.6 1.6 0.00 0.00 0.00 29 1010.5
20260504032624 16 338 1.6 1.6 0.00 0.00 0.00 29 1010.4
20260504032120 15 295 0.0 1.6 0.00 0.00 0.00 31 1010.5
20260504031618 13 187 0.0 0.0 0.00 0.00 0.00 37 1010.7
20260504031114 13 295 0.0 0.0 0.00 0.00 0.00 41 1010.4
20260504030611 13 245 0.0 0.0 0.00 0.00 0.00 42 1010.2
20260504030108 13 317 0.0 0.0 0.00 0.00 0.00 44 1010.5
20260504025604 14 257 0.0 0.0 0.00 0.00 0.00 44 1010.4
20260504025101 15 199 0.0 0.0 0.00 0.00 0.00 40 1010.3
20260504024558 15 198 0.0 0.0 0.00 0.00 0.00 36 1010.3
20260504024055 15 200 0.0 0.0 0.00 0.00 0.00 32 1010.2
20260504023551 16 206 0.0 0.0 0.00 0.00 0.00 32 1010.0